Terminal Aerodrome Forecast
Issued by NWS

Home | Current Version | Previous Version | Text Only | Print | Product List | Glossary On
Versions: 1 2 3 4 5 6 7 8 9 10 11 12
256
FTUS45 KPSR 081120
TAFIPL
TAF
KIPL 081120Z 0812/0912 28006KT P6SM FEW250
     FM081900 34010KT P6SM SKC
     FM090300 27006KT P6SM SKC=

USA.gov is the U.S. government's official web portal to all federal, state and local government web resources and services.